Printer-friendly version

IAU Minor Planet Center

Minor Planet Center

MPEC 2004-T62 : 2004 TR14

The following Minor Planet Electronic Circular may be linked-to from your own Web pages, but must not otherwise be redistributed electronically.


Read MPEC 2004-T61 Read MPEC 2004-T63


M.P.E.C. 2004-T62                                Issued 2004 Oct. 12, 22:55 UT

     The Minor Planet Electronic Circulars contain information on unusual
         minor planets and routine data on comets.  They are published
   on behalf of Commission 20 of the International Astronomical Union by the
          Minor Planet Center, Smithsonian Astrophysical Observatory,
                          Cambridge, MA 02138, U.S.A.

                  Supported in part by the Brinson Foundation
             Prepared using the Tamkin Foundation Computer Network

                              MPC@CFA.HARVARD.EDU
          URL http://cfa-www.harvard.edu/iau/mpc.html  ISSN 1523-6714

                                   2004 TR14

Observations:
     K04T14R* C2004 10 10.41480 07 24 58.11 +35 00 00.7          19.5   ET062704
     K04T14R  C2004 10 10.42563 07 25 00.06 +35 00 19.2          19.5   ET062704
     K04T14R  C2004 10 10.44726 07 25 03.78 +35 00 53.9          19.5   ET062704
     K04T14R  C2004 10 10.45808 07 25 05.81 +35 01 12.7          19.9   ET062704
     K04T14R  C2004 10 11.30337 07 27 36.81 +35 23 57.4          17.9 R ET062785
     K04T14R  C2004 10 11.31841 07 27 39.58 +35 24 19.4          18.2 R ET062785
     K04T14R  C2004 10 11.32523 07 27 40.65 +35 24 31.4          18.2 R ET062785
     K04T14R  C2004 10 11.36054 07 27 47.22 +35 25 28.1          18.4 R ET062854
     K04T14R  C2004 10 11.36574 07 27 48.18 +35 25 36.5          18.4 R ET062854
     K04T14R  C2004 10 11.37098 07 27 49.11 +35 25 45.4          18.4 R ET062854
     K04T14R 5C2004 10 11.45556 07 28 04.19 +35 28 03.9          19.7 R ET062673
     K04T14R 5C2004 10 11.46042 07 28 05.07 +35 28 11.8                 ET062673
     K04T14R 5C2004 10 11.46829 07 28 06.53 +35 28 25.0                 ET062673
     K04T14R 5C2004 10 11.48576 07 28 09.56 +35 28 53.4                 ET062673
     K04T14R  C2004 10 12.41259 07 30 57.58 +35 54 10.4          18.7   ET062704
     K04T14R  C2004 10 12.43495 07 31 01.61 +35 54 47.2          18.9   ET062704
     K04T14R  C2004 10 12.44637 07 31 03.72 +35 55 06.9          19.1   ET062704
     K04T14R  C2004 10 12.45756 07 31 05.69 +35 55 25.0          19.2   ET062704

Observer details:
673 Table Mountain Observatory, Wrightwood.  Observer J. Young.  0.6-m
    reflector + CCD.
704 Lincoln Laboratory ETS, New Mexico.  Observers M. Blythe, F. Shelly,
    M. Bezpalko, R. Huber, L. Manguso, D. Torres, R. Kracke, M. McCleary,
    H. Stange, A. Milner.  Measurers J. Stuart, R. Sayer, J. Evans, J. Kommers.
    1.0-m f/2.15 reflector + CCD.
785 Fitz-Randolph Observatory, Princeton.  Observer J. Maffei.  0.91-m f/13.6
    Cassegrain + CCD.
854 Sabino Canyon Observatory, Tucson.  Observer J. E. McGaha.  0.36-m f/10.0
    Schmidt-Cassegrain + CCD.

Orbital elements:
2004 TR14
Epoch 2004 Oct. 2.0 TT = JDT 2453280.5                  MPC
M 308.17372              (2000.0)            P               Q
n   0.41465717     Peri.   89.99124     -0.62641762     -0.56641708
a   1.7810520      Node    55.50590     +0.13662730     -0.75615367
e   0.2524530      Incl.   40.52254     +0.76742032     -0.32772446
P   2.38           H   15.8           G   0.15
From 18 observations 2004 Oct. 10-12.

Ephemeris:
2004 TR14                a,e,i = 1.78, 0.25, 41                  q = 1.3314
Date    TT    R. A. (2000) Decl.     Delta      r     Elong.  Phase     V
2004 10 12    07 29.70   +35 42.9    1.190    1.558    90.3    39.8    18.7
2004 10 22    08 02.22   +40 32.3    1.083    1.526    94.4    40.6    18.5
2004 11 01    08 40.71   +45 49.5    0.992    1.495    97.8    41.1    18.3
2004 11 11    09 27.67   +51 16.8    0.921    1.466   100.2    41.6    18.1
2004 11 21    10 25.65   +56 19.2    0.871    1.439   101.3    42.3    17.9
2004 12 01    11 35.15   +60 08.7    0.842    1.414   101.0    43.2    17.8
2004 12 11    12 50.99   +62 08.3    0.833    1.392    99.6    44.2    17.8
2004 12 21    14 02.70   +62 19.8    0.837    1.373    97.5    45.3    17.8
2004 12 31    15 02.24   +61 21.3    0.850    1.357    95.2    46.2    17.9
2005 01 10    15 47.95   +59 58.4    0.865    1.344    93.1    46.9    17.9
2005 01 20    16 21.57   +58 42.0    0.878    1.336    91.6    47.4    17.9
2005 01 30    16 45.39   +57 47.0    0.884    1.332    90.7    47.7    18.0
2005 02 09    17 00.96   +57 19.5    0.881    1.332    90.8    47.8    17.9
2005 02 19    17 08.70   +57 19.1    0.869    1.336    91.8    47.7    17.9
2005 03 01    17 08.22   +57 40.5    0.846    1.344    93.7    47.3    17.9
2005 03 11    16 58.23   +58 13.3    0.815    1.357    96.7    46.7    17.8
2005 03 21    16 36.79   +58 35.5    0.777    1.373   100.7    45.5    17.7
2005 03 31    16 03.02   +58 09.0    0.737    1.392   105.6    43.7    17.5
2005 04 10    15 19.47   +56 00.5    0.701    1.414   111.1    41.4    17.4
2005 04 20    14 33.94   +51 19.7    0.675    1.439   116.5    38.6    17.3
2005 04 30    13 55.28   +43 59.1    0.668    1.466   120.8    36.2    17.2
2005 05 10    13 27.53   +34 46.5    0.687    1.495   122.5    34.7    17.3
2005 05 20    13 10.32   +24 58.4    0.734    1.526   121.1    34.6    17.5
2005 05 30    13 01.42   +15 41.1    0.808    1.558   117.1    35.4    17.8
2005 06 09    12 58.67   +07 28.1    0.904    1.591   111.8    36.3    18.1
2005 06 19    13 00.49   +00 25.6    1.018    1.624   105.9    37.0    18.4
2005 06 29    13 05.71   -05 33.9    1.145    1.657   100.0    37.2    18.7
2005 07 09    13 13.58   -10 42.2    1.279    1.691    94.2    36.8    19.0
2005 07 19    13 23.60   -15 10.6    1.418    1.724    88.6    36.1    19.2
2005 07 29    13 35.42   -19 07.6    1.559    1.758    83.3    35.0    19.4
2005 08 08    13 48.85   -22 40.2    1.699    1.790    78.1    33.7    19.6
2005 08 18    14 03.74   -25 53.4    1.838    1.822    73.1    32.1    19.8
2005 08 28    14 20.00   -28 50.3    1.972    1.854    68.3    30.4    19.9
2005 09 07    14 37.64   -31 33.3    2.102    1.884    63.6    28.6    20.0

Timothy B. Spahr             (C) Copyright 2004 MPC           M.P.E.C. 2004-T62

Read MPEC 2004-T61 Read MPEC 2004-T63


Our Web policy. Index to the CBAT/MPC/ICQ pages.


Valid HTML 4.01!